| time (UTC) | temp F | wind direction | speed MPH | gust MPH | rain 1hr in | rain 24hr in | rain mn in | humidity % | barometer mb |
| 20260504190040 | 83 | 127 | 2.0 | 9.0 | 0.00 | 0.00 | 0.00 | 44 | 1015.2 |
| 20260504184535 | 82 | 75 | 4.0 | 8.0 | 0.00 | 0.00 | 0.00 | 45 | 1015.4 |
| 20260504183041 | 82 | 145 | 3.0 | 10.0 | 0.00 | 0.00 | 0.00 | 46 | 1015.6 |
| 20260504181536 | 83 | 96 | 2.0 | 8.0 | 0.00 | 0.00 | 0.00 | 43 | 1015.8 |
| 20260504180058 | 82 | 178 | 4.0 | 11.0 | 0.00 | 0.00 | 0.00 | 43 | 1016.2 |
| 20260504174532 | 82 | 169 | 3.0 | 9.0 | 0.00 | 0.00 | 0.00 | 44 | 1016.5 |
| 20260504173032 | 81 | 166 | 3.0 | 9.0 | 0.00 | 0.00 | 0.00 | 45 | 1016.5 |
| 20260504171533 | 81 | 172 | 4.0 | 12.0 | 0.00 | 0.00 | 0.00 | 47 | 1016.7 |
| 20260504081534 | 67 | 0 | 0.0 | 5.0 | 0.00 | 0.00 | 0.00 | 78 | 1016.1 |
| 20260504044538 | 71 | 340 | 0.0 | 6.0 | 0.00 | 0.00 | 0.00 | 74 | 1017.2 |
| 20260504043043 | 71 | 0 | 0.0 | 6.0 | 0.00 | 0.00 | 0.00 | 74 | 1017.2 |
| 20260504041534 | 71 | 103 | 1.0 | 4.0 | 0.00 | 0.00 | 0.00 | 74 | 1017.3 |
| 20260504040035 | 71 | 0 | 0.0 | 0.0 | 0.00 | 0.00 | 0.00 | 72 | 1017.6 |
| 20260504034534 | 71 | 0 | 0.0 | 2.0 | 0.00 | 0.00 | 0.00 | 71 | 1017.7 |
| 20260504033039 | 71 | 34 | 1.0 | 4.0 | 0.00 | 0.00 | 0.00 | 69 | 1017.7 |
| 20260504031538 | 72 | 64 | 0.0 | 5.0 | 0.00 | 0.00 | 0.00 | 68 | 1017.6 |
| 20260504030043 | 72 | 13 | 1.0 | 6.0 | 0.00 | 0.00 | 0.00 | 67 | 1017.5 |
| 20260504024532 | 72 | 10 | 1.0 | 6.0 | 0.00 | 0.00 | 0.00 | 67 | 1017.5 |
| 20260504023035 | 72 | 36 | 2.0 | 8.0 | 0.00 | 0.00 | 0.00 | 67 | 1017.3 |
| 20260504021535 | 72 | 64 | 3.0 | 10.0 | 0.00 | 0.00 | 0.00 | 66 | 1017.1 |
| 20260504020040 | 72 | 49 | 2.0 | 6.0 | 0.00 | 0.00 | 0.00 | 67 | 1017.0 |
| 20260504014538 | 73 | 19 | 2.0 | 6.0 | 0.00 | 0.02 | 0.00 | 67 | 1016.7 |
| 20260504013036 | 73 | 40 | 2.0 | 11.0 | 0.00 | 0.02 | 0.00 | 67 | 1016.4 |
| 20260504011536 | 73 | 0 | 1.0 | 6.0 | 0.00 | 0.02 | 0.00 | 70 | 1016.2 |
| 20260504010032 | 73 | 0 | 0.0 | 5.0 | 0.00 | 0.02 | 0.00 | 70 | 1016.1 |
| 20260504004535 | 73 | 41 | 0.0 | 5.0 | 0.00 | 0.02 | 0.00 | 69 | 1016.0 |
| 20260504003031 | 73 | 342 | 1.0 | 8.0 | 0.00 | 0.02 | 0.00 | 68 | 1015.8 |
| 20260504001538 | 73 | 328 | 3.0 | 12.0 | 0.00 | 0.02 | 0.00 | 68 | 1015.7 |
| 20260504000038 | 74 | 0 | 2.0 | 8.0 | 0.00 | 0.02 | 0.00 | 68 | 1015.5 |
| 20260503234540 | 74 | 320 | 3.0 | 10.0 | 0.00 | 0.02 | 0.00 | 67 | 1015.6 |
| 20260503233035 | 75 | 13 | 3.0 | 8.0 | 0.00 | 0.02 | 0.00 | 66 | 1015.6 |
| 20260503231534 | 76 | 77 | 2.0 | 7.0 | 0.00 | 0.02 | 0.00 | 66 | 1015.6 |
| 20260503230037 | 76 | 336 | 4.0 | 12.0 | 0.00 | 0.02 | 0.00 | 64 | 1015.5 |
| 20260503224535 | 77 | 117 | 3.0 | 12.0 | 0.00 | 0.02 | 0.00 | 65 | 1015.5 |
| 20260503223036 | 77 | 48 | 3.0 | 9.0 | 0.00 | 0.02 | 0.00 | 63 | 1015.5 |
| 20260503221533 | 78 | 273 | 3.0 | 11.0 | 0.00 | 0.02 | 0.00 | 64 | 1015.6 |
| 20260503220040 | 78 | 304 | 2.0 | 9.0 | 0.00 | 0.02 | 0.00 | 62 | 1015.5 |
| 20260503214540 | 79 | 360 | 3.0 | 10.0 | 0.00 | 0.07 | 0.00 | 59 | 1015.6 |
| 20260503213036 | 78 | 352 | 1.0 | 11.0 | 0.00 | 0.07 | 0.00 | 61 | 1015.5 |
| 20260503211548 | 79 | 275 | 3.0 | 11.0 | 0.00 | 0.07 | 0.00 | 60 | 1015.6 |
| 20260503210035 | 80 | 352 | 3.0 | 9.0 | 0.00 | 0.07 | 0.00 | 59 | 1015.6 |
| 20260503204537 | 80 | 22 | 2.0 | 11.0 | 0.00 | 0.09 | 0.00 | 59 | 1015.6 |
| 20260503203036 | 80 | 31 | 1.0 | 6.0 | 0.00 | 0.09 | 0.00 | 59 | 1015.6 |
| 20260503201532 | 80 | 0 | 2.0 | 12.0 | 0.00 | 0.09 | 0.00 | 59 | 1015.7 |
| 20260503200051 | 81 | 306 | 1.0 | 6.0 | 0.00 | 0.09 | 0.00 | 58 | 1016.1 |
| 20260503194534 | 80 | 22 | 2.0 | 8.0 | 0.00 | 0.16 | 0.00 | 58 | 1016.5 |
| 20260503193040 | 80 | 17 | 0.0 | 6.0 | 0.00 | 0.16 | 0.00 | 55 | 1016.5 |
| 20260503191541 | 77 | 109 | 3.0 | 9.0 | 0.00 | 0.16 | 0.00 | 57 | 1016.7 |